Time,TemperatureF,DewpointF,PressureIn,WindDirection,WindDirectionDegrees,WindSpeedMPH,WindSpeedGustMPH,Humidity,HourlyPrecipIn,Conditions,Clouds,dailyrainin,SoftwareType,DateUTC
2013-07-06 00:02:00,71.0,63.0,29.95,SE,130,3.0,8.0,76,0.00,,,0.00,,2013-07-06 05:02:00,
2013-07-06 00:12:00,71.0,63.0,29.95,SSE,156,3.0,7.0,77,0.00,,,0.00,,2013-07-06 05:12:00,
2013-07-06 00:22:00,70.0,62.0,29.95,SSE,168,3.0,9.0,77,0.00,,,0.00,,2013-07-06 05:22:00,
2013-07-06 00:33:00,70.0,63.0,29.95,South,175,2.0,6.0,78,0.00,,,0.00,,2013-07-06 05:33:00,
2013-07-06 00:42:00,70.0,63.0,29.95,SE,130,2.0,7.0,78,0.00,,,0.00,,2013-07-06 05:42:00,
2013-07-06 00:53:00,70.0,63.0,29.95,South,180,3.0,8.0,78,0.00,,,0.00,,2013-07-06 05:53:00,
2013-07-06 01:02:00,70.0,63.0,29.95,South,183,2.0,8.0,78,0.00,,,0.00,,2013-07-06 06:02:00,
2013-07-06 01:12:00,70.0,63.0,29.95,SW,229,3.0,10.0,79,0.00,,,0.00,,2013-07-06 06:12:00,
2013-07-06 01:22:00,70.0,64.0,29.95,South,175,3.0,6.0,80,0.00,,,0.00,,2013-07-06 06:22:00,
2013-07-06 01:34:00,69.0,63.0,29.95,SSE,148,4.0,7.0,80,0.00,,,0.00,,2013-07-06 06:34:00,
2013-07-06 01:43:00,69.0,63.0,29.95,South,190,2.0,8.0,80,0.00,,,0.00,,2013-07-06 06:43:00,
2013-07-06 01:53:00,69.0,63.0,29.95,SSE,151,2.0,7.0,81,0.00,,,0.00,,2013-07-06 06:53:00,
2013-07-06 02:02:00,69.0,63.0,29.95,SSE,158,4.0,7.0,81,0.00,,,0.00,,2013-07-06 07:02:00,
2013-07-06 02:12:00,69.0,63.0,29.96,SSE,158,3.0,8.0,81,0.00,,,0.00,,2013-07-06 07:12:00,
2013-07-06 02:22:00,69.0,63.0,29.96,SSE,168,3.0,8.0,82,0.00,,,0.00,,2013-07-06 07:22:00,
2013-07-06 02:33:00,68.0,62.0,29.96,South,169,3.0,8.0,82,0.00,,,0.00,,2013-07-06 07:33:00,
2013-07-06 02:44:00,68.0,63.0,29.96,SSE,167,3.0,8.0,83,0.00,,,0.00,,2013-07-06 07:44:00,
2013-07-06 02:52:00,68.0,63.0,29.96,South,184,3.0,6.0,83,0.00,,,0.00,,2013-07-06 07:52:00,
2013-07-06 03:02:00,68.0,63.0,29.96,SE,141,3.0,7.0,83,0.00,,,0.00,,2013-07-06 08:02:00,
2013-07-06 03:12:00,68.0,63.0,29.96,SSE,168,2.0,9.0,83,0.00,,,0.00,,2013-07-06 08:12:00,
2013-07-06 03:21:00,68.0,63.0,29.95,SSE,163,2.0,7.0,83,0.00,,,0.00,,2013-07-06 08:21:00,
2013-07-06 03:34:00,68.0,63.0,29.95,SE,128,4.0,7.0,83,0.00,,,0.00,,2013-07-06 08:34:00,
2013-07-06 03:43:00,68.0,63.0,29.95,South,180,2.0,8.0,84,0.00,,,0.00,,2013-07-06 08:43:00,
2013-07-06 03:54:00,67.0,62.0,29.95,South,190,2.0,6.0,84,0.00,,,0.00,,2013-07-06 08:54:00,
2013-07-06 04:02:00,67.0,62.0,29.95,ESE,116,2.0,9.0,84,0.00,,,0.00,,2013-07-06 09:02:00,
2013-07-06 04:11:00,67.0,62.0,29.95,SSE,153,1.0,5.0,84,0.00,,,0.00,,2013-07-06 09:11:00,
2013-07-06 04:22:00,67.0,62.0,29.95,South,191,3.0,8.0,83,0.00,,,0.00,,2013-07-06 09:22:00,
2013-07-06 04:33:00,67.0,62.0,29.96,SSE,167,1.0,6.0,84,0.00,,,0.00,,2013-07-06 09:33:00,
2013-07-06 04:43:00,67.0,62.0,29.96,SSE,153,1.0,6.0,84,0.00,,,0.00,,2013-07-06 09:43:00,
2013-07-06 04:52:00,67.0,62.0,29.96,South,180,1.0,6.0,84,0.00,,,0.00,,2013-07-06 09:52:00,
2013-07-06 05:02:00,66.0,61.0,29.96,SSE,161,2.0,6.0,84,0.00,,,0.00,,2013-07-06 10:02:00,
2013-07-06 05:11:00,66.0,61.0,29.96,SSE,159,1.0,4.0,84,0.00,,,0.00,,2013-07-06 10:11:00,
2013-07-06 05:22:00,66.0,61.0,29.96,SSE,156,0.0,5.0,85,0.00,,,0.00,,2013-07-06 10:22:00,
2013-07-06 05:33:00,66.0,61.0,29.96,SE,143,1.0,4.0,85,0.00,,,0.00,,2013-07-06 10:33:00,
2013-07-06 05:42:00,66.0,61.0,29.96,South,171,1.0,3.0,85,0.00,,,0.00,,2013-07-06 10:42:00,
2013-07-06 05:53:00,66.0,61.0,29.96,SSE,165,0.0,4.0,85,0.00,,,0.00,,2013-07-06 10:53:00,
2013-07-06 06:01:00,66.0,61.0,29.96,SSE,162,1.0,4.0,85,0.00,,,0.00,,2013-07-06 11:01:00,
2013-07-06 06:11:00,66.0,61.0,29.96,SSE,157,1.0,2.0,85,0.00,,,0.00,,2013-07-06 11:11:00,
2013-07-06 06:22:00,66.0,61.0,29.96,South,169,1.0,5.0,85,0.00,,,0.00,,2013-07-06 11:22:00,
2013-07-06 06:33:00,66.0,61.0,29.96,SSE,155,1.0,4.0,85,0.00,,,0.00,,2013-07-06 11:33:00,
2013-07-06 06:42:00,66.0,61.0,29.96,South,177,1.0,3.0,85,0.00,,,0.00,,2013-07-06 11:42:00,
2013-07-06 06:53:00,67.0,62.0,29.96,South,171,2.0,4.0,85,0.00,,,0.00,,2013-07-06 11:53:00,
2013-07-06 07:01:00,67.0,62.0,29.96,SE,135,1.0,6.0,85,0.00,,,0.00,,2013-07-06 12:01:00,
2013-07-06 07:11:00,67.0,62.0,29.96,South,186,2.0,6.0,84,0.00,,,0.00,,2013-07-06 12:11:00,
2013-07-06 07:22:00,68.0,63.0,29.96,SE,141,1.0,6.0,83,0.00,,,0.00,,2013-07-06 12:22:00,
2013-07-06 07:33:00,68.0,63.0,29.96,SE,142,1.0,6.0,83,0.00,,,0.00,,2013-07-06 12:33:00,
2013-07-06 07:43:00,69.0,63.0,29.96,South,180,2.0,7.0,81,0.00,,,0.00,,2013-07-06 12:43:00,
2013-07-06 07:52:00,69.0,63.0,29.96,SSW,194,2.0,7.0,81,0.00,,,0.00,,2013-07-06 12:52:00,
2013-07-06 08:01:00,70.0,64.0,29.97,SSW,192,2.0,9.0,80,0.00,,,0.00,,2013-07-06 13:01:00,
2013-07-06 08:12:00,70.0,63.0,29.97,South,191,2.0,7.0,79,0.00,,,0.00,,2013-07-06 13:12:00,
2013-07-06 08:22:00,71.0,64.0,29.97,SSE,167,2.0,6.0,78,0.00,,,0.00,,2013-07-06 13:22:00,
2013-07-06 08:33:00,71.0,63.0,29.97,SW,221,2.0,6.0,76,0.00,,,0.00,,2013-07-06 13:33:00,
2013-07-06 08:43:00,72.0,64.0,29.97,South,187,3.0,9.0,76,0.00,,,0.00,,2013-07-06 13:43:00,
2013-07-06 08:52:00,73.0,65.0,29.97,SSW,198,4.0,8.0,75,0.00,,,0.00,,2013-07-06 13:52:00,
2013-07-06 09:11:00,74.0,64.0,29.96,WNW,284,3.0,8.0,71,0.00,,,0.00,,2013-07-06 14:11:00,
2013-07-06 09:22:00,75.0,65.0,29.96,WSW,246,4.0,10.0,70,0.00,,,0.00,,2013-07-06 14:22:00,
2013-07-06 09:34:00,76.0,65.0,29.96,South,172,3.0,7.0,70,0.00,,,0.00,,2013-07-06 14:34:00,
2013-07-06 09:42:00,77.0,65.0,29.96,South,175,2.0,7.0,67,0.00,,,0.00,,2013-07-06 14:42:00,
2013-07-06 09:53:00,77.0,65.0,29.96,South,170,4.0,11.0,66,0.00,,,0.00,,2013-07-06 14:53:00,
2013-07-06 10:02:00,77.0,64.0,29.96,SW,214,4.0,7.0,65,0.00,,,0.00,,2013-07-06 15:02:00,
2013-07-06 10:12:00,78.0,66.0,29.96,South,190,4.0,7.0,66,0.00,,,0.00,,2013-07-06 15:12:00,
2013-07-06 10:22:00,79.0,67.0,29.96,SSW,209,3.0,6.0,66,0.00,,,0.00,,2013-07-06 15:22:00,
2013-07-06 10:43:00,80.0,66.0,29.96,South,173,3.0,10.0,63,0.00,,,0.00,,2013-07-06 15:43:00,
2013-07-06 10:53:00,80.0,66.0,29.96,SW,219,4.0,7.0,63,0.00,,,0.00,,2013-07-06 15:53:00,
2013-07-06 11:07:00,81.0,66.0,29.96,South,189,5.0,10.0,60,0.00,,,0.00,,2013-07-06 16:07:00,
2013-07-06 11:25:00,82.0,66.0,29.96,SSW,205,3.0,8.0,59,0.00,,,0.00,,2013-07-06 16:25:00,
2013-07-06 12:00:00,82.0,67.0,29.95,SSW,203,4.0,8.0,60,0.00,,,0.00,,2013-07-06 17:00:00,
2013-07-06 12:12:00,82.0,68.0,29.95,South,169,1.0,9.0,62,0.00,,,0.00,,2013-07-06 17:12:00,
2013-07-06 12:51:00,83.0,67.0,29.95,South,176,1.0,9.0,59,0.00,,,0.00,,2013-07-06 17:51:00,
2013-07-06 13:00:00,84.0,67.0,29.95,SE,139,3.0,8.0,56,0.00,,,0.00,,2013-07-06 18:00:00,
2013-07-06 13:10:00,83.0,66.0,29.94,SSE,166,4.0,12.0,56,0.00,,,0.00,,2013-07-06 18:10:00,
2013-07-06 13:33:00,84.0,67.0,29.94,SE,135,3.0,8.0,56,0.00,,,0.00,,2013-07-06 18:33:00,
2013-07-06 13:43:00,84.0,66.0,29.94,SSW,193,4.0,8.0,54,0.00,,,0.00,,2013-07-06 18:43:00,
2013-07-06 13:52:00,85.0,66.0,29.94,SE,143,4.0,9.0,54,0.00,,,0.00,,2013-07-06 18:52:00,
2013-07-06 14:00:00,85.0,66.0,29.93,South,181,4.0,7.0,53,0.00,,,0.00,,2013-07-06 19:00:00,
2013-07-06 14:10:00,86.0,67.0,29.93,ESE,109,3.0,8.0,53,0.00,,,0.00,,2013-07-06 19:10:00,
2013-07-06 14:21:00,86.0,66.0,29.93,SSW,211,3.0,7.0,52,0.00,,,0.00,,2013-07-06 19:21:00,
2013-07-06 14:29:00,86.0,65.0,29.93,SE,141,4.0,11.0,50,0.00,,,0.00,,2013-07-06 19:29:00,
2013-07-06 14:42:00,86.0,66.0,29.93,SSE,160,3.0,7.0,52,0.00,,,0.00,,2013-07-06 19:42:00,
2013-07-06 14:52:00,86.0,68.0,29.93,SW,225,2.0,9.0,55,0.00,,,0.00,,2013-07-06 19:52:00,
2013-07-06 15:21:00,87.0,67.0,29.93,SSE,164,3.0,8.0,52,0.00,,,0.00,,2013-07-06 20:21:00,
2013-07-06 15:44:00,87.0,65.0,29.92,South,169,3.0,9.0,49,0.00,,,0.00,,2013-07-06 20:44:00,
2013-07-06 15:53:00,86.0,64.0,29.92,South,169,4.0,9.0,48,0.00,,,0.00,,2013-07-06 20:53:00,
2013-07-06 16:00:00,86.0,65.0,29.92,South,180,4.0,9.0,50,0.00,,,0.00,,2013-07-06 21:00:00,
2013-07-06 16:32:00,86.0,65.0,29.92,SW,215,3.0,8.0,49,0.00,,,0.00,,2013-07-06 21:32:00,
2013-07-06 16:43:00,87.0,66.0,29.92,SSW,205,3.0,10.0,50,0.00,,,0.00,,2013-07-06 21:43:00,
2013-07-06 17:00:00,87.0,67.0,29.91,SSE,165,3.0,10.0,51,0.00,,,0.00,,2013-07-06 22:00:00,
2013-07-06 17:12:00,87.0,67.0,29.91,South,169,3.0,8.0,51,0.00,,,0.00,,2013-07-06 22:12:00,
2013-07-06 17:22:00,87.0,66.0,29.91,SSE,165,3.0,8.0,50,0.00,,,0.00,,2013-07-06 22:22:00,
2013-07-06 17:31:00,86.0,66.0,29.91,South,187,4.0,9.0,51,0.00,,,0.00,,2013-07-06 22:31:00,
2013-07-06 17:43:00,86.0,66.0,29.90,South,176,3.0,9.0,51,0.00,,,0.00,,2013-07-06 22:43:00,
2013-07-06 17:52:00,86.0,66.0,29.90,SSE,164,4.0,8.0,52,0.00,,,0.00,,2013-07-06 22:52:00,
2013-07-06 18:00:00,85.0,65.0,29.90,South,171,6.0,9.0,51,0.00,,,0.00,,2013-07-06 23:00:00,
2013-07-06 18:09:00,85.0,66.0,29.90,SSE,156,4.0,10.0,54,0.00,,,0.00,,2013-07-06 23:09:00,
2013-07-06 18:32:00,85.0,67.0,29.90,South,175,4.0,9.0,55,0.00,,,0.00,,2013-07-06 23:32:00,
2013-07-06 18:44:00,84.0,66.0,29.90,SSE,162,3.0,8.0,54,0.00,,,0.00,,2013-07-06 23:44:00,
2013-07-06 18:51:00,84.0,66.0,29.90,SSE,155,4.0,7.0,55,0.00,,,0.00,,2013-07-06 23:51:00,
2013-07-06 19:00:00,84.0,67.0,29.90,SSE,152,2.0,7.0,56,0.00,,,0.00,,2013-07-07 00:00:00,
2013-07-06 19:14:00,84.0,66.0,29.90,SSE,159,3.0,7.0,55,0.00,,,0.00,,2013-07-07 00:14:00,
2013-07-06 19:22:00,83.0,66.0,29.89,South,181,3.0,9.0,57,0.00,,,0.00,,2013-07-07 00:22:00,
2013-07-06 19:31:00,83.0,67.0,29.89,SSE,153,2.0,6.0,58,0.00,,,0.00,,2013-07-07 00:31:00,
2013-07-06 19:59:00,83.0,67.0,29.89,SSE,153,2.0,6.0,59,0.00,,,0.00,,2013-07-07 00:59:00,
2013-07-06 20:11:00,83.0,67.0,29.89,SSE,161,3.0,6.0,59,0.00,,,0.00,,2013-07-07 01:11:00,
2013-07-06 20:21:00,83.0,67.0,29.89,SE,145,2.0,6.0,59,0.00,,,0.00,,2013-07-07 01:21:00,
2013-07-06 21:20:00,79.0,67.0,29.91,SSE,152,1.0,2.0,67,0.00,,,0.00,,2013-07-07 02:20:00,
2013-07-06 22:33:00,78.0,67.0,29.91,SSE,152,0.0,2.0,68,0.00,,,0.00,,2013-07-07 03:33:00,
2013-07-06 22:43:00,78.0,67.0,29.91,SSE,152,0.0,2.0,68,0.00,,,0.00,,2013-07-07 03:43:00,
2013-07-06 22:54:00,78.0,67.0,29.91,SSE,152,0.0,2.0,68,0.00,,,0.00,,2013-07-07 03:54:00,
2013-07-06 23:01:00,78.0,67.0,29.91,SSE,152,0.0,2.0,68,0.00,,,0.00,,2013-07-07 04:01:00,
2013-07-06 23:02:00,78.0,67.0,29.91,SSE,152,0.0,2.0,68,0.00,,,0.00,,2013-07-07 04:02:00,
2013-07-06 23:11:00,78.0,67.0,29.91,SSE,152,0.0,1.0,68,0.00,,,0.00,,2013-07-07 04:11:00,